Theta_e
314 314 313 314 314 314 315 315 315 315 315 315 315 314 314 315 313 302 300 307 310 317 315 307 306 305 306 306 309 306 296 295 294 296 299 304 302 307 315 315 318 320 318 321 326
315 316 316 316 316 315 315 315 316 315 315 315 314 314 314 315 303 296 310 313 313 314 306 304 302 302 293 303 305 301 294 297 301 301 300 304 303 304 306 309 314 318 321 323 326
317 317 317 316 316 316 316 316 315 315 315 315 314 314 314 310 295 297 313 313 312 308 307 306 302 301 293 300 300 299 295 300 302 304 303 302 302 305 303 301 310 310 313 321 323
316 315 315 315 315 315 316 316 316 316 315 314 314 314 313 298 281 297 312 312 310 304 301 301 298 292 289 289 296 292 298 297 300 298 297 298 304 302 303 305 309 310 315 320 320
315 315 315 315 315 314 315 315 316 315 315 314 314 313 301 290 291 300 308 305 300 300 296 297 296 294 290 292 294 290 294 296 297 297 296 297 298 302 303 306 309 309 312 318 321
315 314 314 315 315 315 314 315 315 315 314 313 314 311 294 285 299 301 299 301 298 298 296 296 295 297 294 293 292 294 295 295 295 294 295 293 292 294 303 308 307 308 308 315 320
314 314 313 313 313 314 314 314 314 314 313 313 313 304 292 289 300 299 300 298 298 297 295 297 298 294 295 290 296 296 290 290 290 293 293 296 291 291 298 304 305 308 309 312 316
314 313 313 313 313 314 314 314 314 313 312 313 310 298 286 298 299 298 299 298 299 299 299 300 300 296 295 296 292 287 287 282 288 290 291 295 283 292 295 296 300 303 307 309 312
314 313 313 313 313 313 313 313 312 312 311 311 298 293 286 300 294 296 297 296 297 298 299 302 297 292 292 286 279 282 277 280 282 289 289 290 285 291 292 293 293 296 302 309 312
313 313 313 313 313 313 312 309 304 303 299 300 298 283 288 288 292 296 297 298 295 295 292 292 289 285 283 281 268 275 277 279 280 285 286 284 283 287 290 291 292 293 296 301 305
314 313 313 313 312 310 301 291 286 286 290 286 286 286 288 293 296 294 296 294 292 287 282 286 281 277 278 282 282 282 281 279 282 286 284 283 283 285 289 289 290 292 295 298 301
314 313 313 312 308 306 296 289 289 288 281 290 291 290 292 294 288 290 296 288 286 281 284 281 278 281 283 283 282 281 280 278 281 284 284 282 281 285 287 288 290 292 293 294 298
314 313 313 311 307 299 294 293 298 293 282 286 289 288 291 293 286 288 292 288 283 282 281 278 279 285 283 282 281 281 278 278 277 281 283 281 279 282 286 289 290 291 293 295 296
314 313 313 309 298 294 292 297 297 290 273 280 282 287 289 288 283 292 292 289 285 281 282 280 283 283 281 280 281 276 281 280 280 275 268 281 272 280 284 285 288 290 291 294 296
313 313 310 306 293 291 295 297 293 285 267 279 282 291 289 285 285 286 291 288 282 281 281 278 279 280 280 281 282 280 283 281 281 277 275 277 273 278 283 282 285 289 291 293 296
313 310 306 298 295 294 296 289 286 273 266 277 281 282 282 284 284 286 285 288 286 282 283 281 284 283 282 284 283 284 282 281 280 276 269 273 273 276 280 283 286 291 293 294 296
311 308 301 296 290 295 291 284 272 267 276 272 277 281 280 281 281 281 281 280 278 272 272 279 280 282 284 281 283 282 277 265 263 261 268 276 273 278 283 286 290 290 291 293 295
307 302 298 295 295 291 286 277 266 266 268 279 280 280 277 279 278 278 278 275 280 278 273 271 268 278 283 282 279 278 277 269 266 265 270 278 272 278 287 291 291 293 292 293 293
303 292 291 292 294 289 281 268 269 269 278 274 277 272 273 278 275 275 273 273 278 280 270 273 272 281 281 282 281 279 276 281 275 275 272 270 276 281 288 290 290 290 292 292 293
291 290 289 293 291 286 276 274 270 279 280 277 271 274 268 271 269 268 271 277 280 283 282 276 271 279 281 282 282 281 283 275 274 268 265 268 271 275 284 286 288 289 289 290 290
290 284 289 291 289 281 271 270 275 282 282 279 270 273 275 272 271 268 267 277 281 280 283 279 276 275 279 277 274 276 277 279 279 276 271 269 272 284 285 287 286 288 289 289 289
287 277 290 289 277 266 269 270 282 281 282 281 277 277 275 276 273 273 270 272 282 279 276 281 277 271 273 280 279 279 278 278 273 271 274 274 274 288 288 287 289 289 289 288 289
285 285 290 287 273 270 273 277 281 280 281 281 279 280 278 276 267 273 267 279 281 278 274 279 272 263 269 274 280 279 279 280 278 277 272 271 274 287 287 287 290 288 287 287 289
287 280 283 280 279 277 272 271 273 282 281 282 281 280 276 275 277 267 269 279 282 276 285 284 274 269 267 273 275 274 275 277 276 272 273 274 276 282 284 286 286 287 287 286 287
286 281 284 279 280 276 277 274 271 274 281 281 279 279 277 270 274 272 271 277 280 283 282 276 270 271 274 275 275 274 274 275 275 276 274 276 277 281 284 283 285 289 287 286 286
283 281 282 274 281 278 279 275 275 276 279 276 277 279 279 271 275 270 276 276 277 279 280 278 268 270 267 271 274 272 275 275 276 277 277 278 278 285 283 285 287 286 286 286 286
288 287 286 281 279 278 276 278 278 280 280 281 280 279 278 279 279 279 279 279 279 277 275 277 273 270 261 269 266 263 271 277 277 278 279 276 281 284 280 283 285 284 285 286 287
Wind_Speed
7 7 8 8 9 10 11 12 13 14 15 16 18 18 18 16 9 6 10 7 11 17 7 5 6 7 1 0 0 2 2 9 5 6 5 3 3 2 1 2 2 5 2 1 11
6 7 8 9 9 10 10 11 12 13 15 16 18 19 19 12 2 8 9 15 15 15 6 7 8 8 3 3 1 3 3 5 6 5 5 8 7 6 4 4 3 3 3 5 16
10 10 10 10 10 10 10 11 11 12 13 14 16 18 18 5 3 3 12 17 16 11 4 2 3 3 5 4 5 4 3 4 2 5 10 6 6 5 5 7 5 7 5 8 14
8 9 10 11 11 11 11 11 11 13 14 16 18 19 15 2 3 3 14 18 12 7 5 5 6 5 4 4 4 4 4 4 6 11 8 9 10 8 9 11 7 7 1 10 13
8 8 9 10 10 10 11 11 11 12 14 15 16 17 6 6 3 7 14 12 5 4 5 4 6 2 2 2 5 3 4 10 11 11 12 13 12 13 12 6 9 10 7 13 15
6 8 8 9 10 10 10 11 12 12 12 14 14 11 4 5 4 8 8 6 5 4 4 5 2 0 1 2 0 3 6 11 7 12 12 15 18 9 1 4 13 13 12 11 16
6 6 6 7 9 9 9 9 10 11 11 11 9 3 4 2 3 6 6 3 2 1 2 1 1 2 2 4 3 6 7 6 5 2 6 10 8 15 15 14 22 19 17 14 17
7 7 5 6 7 8 8 9 9 10 9 6 5 2 1 3 3 6 7 6 5 2 1 2 1 1 2 3 6 5 3 5 5 11 6 6 16 25 11 15 16 16 18 20 16
7 7 7 6 6 6 7 9 10 6 3 2 4 3 2 7 6 6 2 5 7 4 2 1 2 3 5 3 5 5 4 5 8 10 7 2 11 9 21 23 21 18 15 15 13
6 5 4 5 4 5 8 6 5 3 3 2 2 3 6 5 5 6 4 4 3 5 6 8 5 3 4 5 3 5 6 5 12 6 14 20 29 21 16 18 21 19 20 18 15
8 5 1 3 5 7 3 3 6 4 8 3 1 1 2 7 2 4 3 4 4 7 5 5 5 2 5 5 5 3 8 16 19 14 15 17 26 21 18 17 20 22 19 17 19
6 6 5 3 6 4 4 5 2 1 2 0 2 3 2 2 4 5 6 5 5 3 5 5 2 3 5 6 4 6 12 15 8 10 8 15 32 24 20 23 24 24 24 23 20
6 5 5 7 3 5 4 4 0 0 4 2 1 2 3 3 2 5 5 2 2 3 2 2 4 4 3 6 2 5 9 10 16 8 11 18 25 17 17 16 20 23 26 26 22
6 6 7 7 5 1 2 1 2 2 6 3 1 1 2 2 1 3 2 1 2 3 4 5 3 2 6 8 4 4 6 9 11 8 4 3 22 17 22 19 18 22 21 23 25
8 8 6 7 5 1 3 3 4 5 6 2 3 2 4 3 3 2 4 2 2 3 3 6 4 2 6 6 5 9 2 11 15 15 9 21 5 15 22 21 23 18 17 20 21
11 12 12 6 6 2 2 3 4 10 7 1 2 5 3 4 5 7 6 5 1 1 3 8 3 3 5 5 7 6 5 13 11 3 5 9 6 12 17 10 11 12 13 14 15
12 10 3 2 5 2 1 4 8 5 4 5 2 4 1 4 3 6 4 6 4 7 6 9 4 3 3 5 3 4 5 6 8 5 10 5 6 17 22 8 5 13 16 17 18
16 7 5 2 5 4 3 8 5 4 6 1 1 3 1 4 3 5 3 2 2 4 2 3 12 1 1 2 5 6 4 3 7 7 21 9 8 9 4 4 7 14 17 16 17
14 2 3 2 4 5 5 4 10 8 5 5 1 4 4 1 2 3 1 3 2 2 4 2 9 5 5 5 4 1 3 7 8 8 9 5 9 12 3 15 18 22 21 24 25
4 4 1 3 4 6 6 6 4 4 6 5 5 4 3 4 4 5 2 4 2 3 2 2 9 5 6 4 4 5 4 5 3 7 10 6 9 9 17 14 16 26 24 25 20
4 4 2 3 4 6 5 8 5 4 3 4 6 4 4 3 4 2 5 4 3 3 1 1 5 6 4 4 5 4 4 4 3 4 7 12 13 8 7 13 20 24 24 27 20
5 3 1 3 5 1 4 7 4 5 2 2 5 3 6 6 3 4 6 7 2 5 3 4 3 8 10 14 3 6 5 2 3 8 8 12 22 2 6 19 19 21 23 22 19
5 4 1 4 4 4 3 2 3 5 4 6 6 3 3 5 0 6 5 4 5 6 6 4 2 6 13 6 3 3 3 4 5 8 14 13 12 3 25 24 19 24 19 15 14
5 5 1 3 1 7 6 5 3 2 3 4 4 5 4 3 4 3 2 4 6 5 5 4 5 8 9 14 6 15 15 16 10 6 12 16 24 25 26 22 27 21 19 14 7
2 5 5 8 7 5 5 6 6 6 3 5 3 7 7 4 3 6 2 5 3 5 3 4 5 4 16 20 19 20 25 19 14 17 9 23 23 27 23 24 23 16 19 12 7
8 6 2 2 6 12 9 9 11 5 10 6 6 10 8 8 10 9 6 4 6 1 5 3 7 3 8 11 10 14 22 18 16 15 12 17 25 13 23 19 15 12 18 14 6
2 1 5 8 6 7 8 9 12 10 8 5 12 6 9 17 8 5 7 4 4 7 6 4 2 4 10 7 9 4 8 5 6 7 5 7 15 19 24 21 18 15 19 16 7
Wind_Direction
356 356 352 351 354 356 357 0 2 0 357 355 356 356 356 348 347 31 46 339 353 344 353 333 11 342 333 25 155 124 251 243 214 189 229 264 228 269 286 212 235 195 253 343 142
325 330 334 337 340 344 349 353 355 356 355 354 351 349 348 345 50 54 358 5 357 352 15 22 359 353 31 4 342 172 211 241 197 206 236 254 225 244 250 241 246 281 229 130 154
326 333 333 333 334 334 337 344 346 350 353 352 348 345 343 340 77 2 351 356 352 354 356 16 13 51 55 356 358 330 241 341 328 334 354 285 287 240 233 245 206 214 226 173 178
341 337 330 329 331 334 335 336 341 347 350 350 348 346 340 329 77 328 345 348 352 6 43 26 12 37 59 359 342 336 316 19 330 330 323 309 310 290 247 251 232 249 167 184 198
325 322 321 320 320 325 331 333 339 344 347 348 348 348 8 40 13 338 343 350 11 30 47 30 46 61 35 306 330 201 335 326 319 310 301 284 267 269 266 283 279 271 213 196 202
304 305 317 318 321 324 331 333 334 338 344 345 349 354 33 65 306 337 345 360 16 30 14 38 67 317 293 307 73 312 290 290 285 279 271 269 272 264 48 243 250 248 247 217 209
305 282 304 311 314 317 321 323 323 327 334 339 354 46 46 175 336 318 6 291 325 355 37 38 335 71 356 324 313 278 295 321 287 306 276 295 282 244 254 264 256 253 257 243 218
293 293 289 292 302 306 311 313 312 316 320 334 20 40 145 289 277 14 342 335 353 20 247 277 136 97 112 312 351 338 32 349 310 338 296 9 273 299 356 339 320 297 265 259 239
273 285 284 288 296 300 308 311 312 311 333 57 44 47 5 327 15 323 349 326 316 339 28 285 74 73 29 29 359 12 295 296 317 330 294 287 298 323 321 311 301 301 298 280 263
306 310 300 298 312 316 316 328 7 65 19 55 82 63 8 317 304 325 316 331 356 337 10 31 38 54 36 57 255 281 305 279 292 271 302 289 281 284 282 278 282 282 279 277 277
295 260 203 315 336 334 14 25 20 349 41 107 209 148 289 294 273 331 353 5 14 46 22 0 30 278 286 226 249 291 279 281 266 271 283 269 275 282 279 271 268 271 266 260 265
268 255 156 122 35 67 60 71 88 197 17 349 300 305 241 319 349 330 15 46 41 7 337 11 266 228 247 248 218 263 273 271 282 261 268 285 280 289 280 266 260 259 260 258 250
264 209 162 131 95 42 80 123 121 123 89 325 0 350 316 35 338 288 27 360 56 355 10 196 248 295 257 296 276 249 254 281 277 304 252 278 282 291 275 260 254 252 250 253 251
228 186 154 119 60 197 73 127 46 50 75 290 279 35 19 30 276 258 334 134 358 315 319 239 270 297 292 274 186 267 271 274 285 334 280 81 295 298 281 276 270 263 253 249 249
175 157 140 105 132 65 175 135 106 69 1 238 294 331 333 71 312 343 330 48 261 276 57 264 275 283 281 237 163 243 342 285 282 275 311 276 253 290 289 287 277 275 271 255 246
151 140 131 86 87 308 55 59 44 48 258 326 324 346 21 23 360 324 15 25 147 298 249 251 313 233 231 278 218 283 299 287 286 261 254 262 177 276 290 283 321 332 321 310 279
141 125 68 101 132 142 95 40 39 122 335 288 320 14 354 336 3 26 12 12 47 23 352 315 257 264 212 297 300 33 355 324 348 355 259 274 315 271 292 299 306 316 324 321 306
127 97 21 28 111 119 45 50 99 224 224 9 297 313 40 2 29 340 34 26 262 128 316 3 324 314 130 251 269 295 172 200 287 291 295 285 239 260 215 258 289 317 314 305 301
119 64 44 318 101 80 68 72 200 197 160 152 78 71 321 345 123 355 79 214 241 83 149 358 272 289 281 272 172 331 217 217 257 262 275 255 281 293 321 335 339 322 315 318 313
108 103 69 327 87 74 78 242 202 187 127 100 158 145 205 277 46 45 325 212 201 161 145 224 288 251 287 334 248 217 322 324 331 307 285 280 275 266 311 311 310 323 324 314 305
88 94 250 77 60 56 182 220 213 195 145 147 191 155 195 168 126 236 254 286 193 168 211 211 206 278 356 212 196 340 286 237 259 237 291 311 294 271 273 299 320 316 308 319 310
133 100 309 62 71 302 181 195 180 147 140 130 118 147 171 162 168 241 239 220 134 150 190 196 272 279 249 284 213 198 230 214 316 301 275 279 277 318 230 319 331 318 307 313 313
110 115 49 95 162 237 275 249 198 134 184 174 177 179 179 169 96 223 220 260 198 169 183 190 267 321 334 2 29 249 234 245 281 270 264 277 280 324 314 320 322 319 313 311 317
120 126 4 65 210 158 150 234 193 205 173 166 145 116 105 196 201 226 264 280 181 207 206 166 213 188 220 260 297 295 286 287 271 260 283 259 286 303 313 324 315 320 318 315 330
89 195 172 177 212 185 161 141 142 164 214 186 193 187 167 187 204 221 243 279 211 241 202 157 261 238 251 270 277 277 279 282 254 247 259 289 295 298 311 316 312 325 321 325 331
143 150 103 141 141 151 185 202 174 177 155 218 214 189 181 182 194 190 177 208 227 123 194 189 276 300 277 252 258 270 278 270 261 269 254 266 284 299 310 312 327 342 337 346 350
150 83 128 157 162 148 206 181 198 147 210 166 202 138 194 231 213 194 198 203 203 171 198 195 262 322 269 321 317 352 229 236 264 241 235 276 298 319 316 325 327 356 345 347 2